Home > Weather > Gran > Past weeks

Flag for Norway Past Weather in Gran, Norway — Yesterday and Last 2 Weeks

Now
61 °F

Broken clouds.


Feels Like: 61 °F
Forecast: 57 / 65 °F
Wind: 9 mph from South

Location: Oslo Gardermoen Airport

Current Time: Aug 24, 2016 at 12:29:50 PM

Latest Report: Aug 24, 2016 at 11:50 AM


Visibility: N/A

Pressure: 30.24 "Hg

Humidity: 77%

Dew Point: 54 °F

Location of GranLocation

Past Weather in Gran — Graph

°F

Gran Temperature Yesterday

Maximum temperature yesterday: 73 °F (at 4:20 PM)
Minimum temperature yesterday: 52 °F (at 5:50 AM)
Average temperature yesterday: 62 °F

High & Low Weather Summary for the Past Weeks

 TemperatureHumidityPressure
High73 °F (Aug 17, 5:50 PM)100% (Aug 12, 9:50 PM)30.24 "Hg (Aug 12, 9:50 PM)
Low39 °F (Aug 12, 4:50 AM)33% (Aug 17, 6:20 PM)29.42 "Hg (Aug 9, 10:20 AM)
Average58 °F69%29.93 "Hg
* Reported Aug 9 10:20 AM — Aug 24 10:50 AM, Gran, Weather by CustomWeather, © 2016

Note: Actual official high and low records may vary slightly from our data, if they occured in-between our weather recording intervals... More about our weather records

Advertising

Gran Weather History for the Previous 24 Hours

Scroll right to see more
 ConditionsComfort  
Time TempWeatherWind HumidityBarometerVisibility
10:50 AM
Wed, Aug 24
61 °FBroken clouds.10 mph77%30.24 "HgN/A
10:20 AM61 °FOvercast.12 mph77%30.24 "HgN/A
9:50 AM59 °FOvercast.10 mph77%30.24 "HgN/A
9:20 AM59 °FBroken clouds.10 mph82%30.24 "HgN/A
8:50 AM59 °FOvercast.10 mph82%30.24 "HgN/A
8:20 AM57 °FOvercast.8 mph88%30.24 "HgN/A
7:50 AM57 °FOvercast.7 mph88%30.24 "HgN/A
7:20 AM57 °FLow clouds.7 mph88%30.24 "HgN/A
6:50 AM57 °FPassing clouds.7 mph88%30.24 "HgN/A
6:20 AM57 °FLow clouds.8 mph88%30.24 "HgN/A
5:50 AM57 °FLow clouds.7 mph94%30.24 "HgN/A
5:20 AM57 °FLow clouds.6 mph94%30.24 "HgN/A
4:50 AM57 °FLow clouds.5 mph94%30.24 "HgN/A
4:20 AM57 °FLow clouds.7 mph94%30.24 "HgN/A
3:50 AM57 °FLow clouds.7 mph94%30.24 "HgN/A
3:20 AM57 °FPassing clouds.7 mph94%30.24 "HgN/A
2:50 AM57 °FClear.6 mph94%30.24 "Hg10 mi
2:20 AM57 °FPassing clouds.3 mph94%30.24 "HgN/A
1:50 AM59 °FClear.3 mph88%30.24 "Hg10 mi
1:20 AM59 °FClear.5 mph88%30.24 "Hg10 mi
12:50 AM59 °FClear.5 mph88%30.24 "Hg10 mi
12:20 AM59 °FClear.3 mph88%30.24 "Hg10 mi
11:50 PM
Tue, Aug 23
61 °FClear.3 mph77%30.21 "Hg10 mi
11:20 PM61 °FClear.2 mph77%30.21 "Hg10 mi
10:50 PM61 °FClear.1 mph77%30.21 "Hg10 mi
10:20 PM61 °FClear.2 mph72%30.21 "Hg10 mi
9:50 PM64 °FClear.1 mph64%30.21 "Hg10 mi
9:20 PM64 °FSunny.2 mph68%30.21 "Hg10 mi
8:50 PM64 °FSunny.2 mph68%30.21 "Hg10 mi
8:20 PM66 °FPassing clouds.3 mph64%30.21 "HgN/A
7:50 PM66 °FSunny.5 mph64%30.18 "Hg10 mi
7:20 PM70 °FScattered clouds.7 mph57%30.18 "HgN/A
6:50 PM68 °FScattered clouds.8 mph60%30.18 "HgN/A
6:20 PM70 °FScattered clouds.7 mph57%30.18 "HgN/A
5:50 PM72 °FScattered clouds.7 mph50%30.18 "HgN/A
5:20 PM72 °FSunny.No wind50%30.18 "Hg10 mi
4:50 PM73 °FPassing clouds.3 mph44%30.18 "HgN/A
4:20 PM73 °FPassing clouds.3 mph47%30.18 "HgN/A
3:50 PM72 °FPassing clouds.3 mph50%30.18 "HgN/A
3:20 PM72 °FPassing clouds.2 mph50%30.18 "HgN/A
2:50 PM70 °FPassing clouds.5 mph53%30.18 "HgN/A
2:20 PM70 °FPassing clouds.3 mph53%30.18 "HgN/A
1:50 PM68 °FSunny.2 mph56%30.18 "Hg10 mi
1:20 PM68 °FPassing clouds.5 mph53%30.18 "HgN/A
12:50 PM68 °FPassing clouds.5 mph56%30.18 "HgN/A
12:20 PM66 °FPassing clouds.3 mph60%30.18 "HgN/A
Weather by CustomWeather, © 2016

See weather overviewHow to use our weather pages